FW6488 Weather Reports


time (UTC)temp
F
wind
direction
speed
knots
gust
knots
rain 1hr
in
rain 24hr
in
rain mn
in
humidity
%
barometer
mb
20260506025503 69 323 6.1 10.4 0.00 0.00 0.00 45 1014.8
20260506025003 69 324 6.1 11.3 0.00 0.00 0.00 45 1014.8
20260506024503 70 332 6.1 11.3 0.00 0.00 0.00 44 1014.7
20260506024217 70 332 7.0 13.0 0.00 0.00 0.00 44 1014.6
20260506023503 70 334 7.0 13.0 0.00 0.00 0.00 43 1014.5
20260506023003 70 332 7.0 13.0 0.00 0.00 0.00 43 1014.5
20260506022503 71 327 6.1 13.0 0.00 0.00 0.00 42 1014.4
20260506022003 71 328 6.1 13.9 0.00 0.00 0.00 42 1014.3
20260506021718 71 328 6.1 13.9 0.00 0.00 0.00 42 1014.3
20260506021003 72 328 7.0 13.0 0.00 0.00 0.00 41 1014.2
20260506020503 72 326 7.0 13.9 0.00 0.00 0.00 40 1014.1
20260506020003 73 320 7.0 13.9 0.00 0.00 0.00 39 1014.1
20260506015503 73 318 7.0 13.0 0.00 0.00 0.00 39 1014.0
20260506015004 74 318 7.0 13.9 0.00 0.00 0.00 39 1014.0
20260506014503 74 319 7.8 13.9 0.00 0.00 0.00 38 1014.0
20260506014217 74 325 7.8 14.8 0.00 0.00 0.00 38 1014.0
20260506013503 74 332 7.8 14.8 0.00 0.00 0.00 38 1014.0
20260506013219 74 329 7.0 13.0 0.00 0.00 0.00 37 1014.0
20260506012503 74 332 5.2 11.3 0.00 0.00 0.00 36 1013.8
20260506012217 74 333 5.2 11.3 0.00 0.00 0.00 34 1013.8
20260506011504 74 337 6.1 11.3 0.00 0.00 0.00 34 1013.8
20260506011004 74 342 6.1 11.3 0.00 0.00 0.00 35 1013.8
20260506010503 73 346 5.2 11.3 0.00 0.00 0.00 36 1013.8
20260506010004 73 332 4.3 9.6 0.00 0.00 0.00 34 1013.8
20260506005503 73 311 4.3 9.6 0.00 0.00 0.00 36 1013.8
20260506005003 74 301 4.3 9.6 0.00 0.00 0.00 33 1013.8
20260506004503 74 314 4.3 8.7 0.00 0.00 0.00 32 1013.8
20260506004003 74 323 5.2 9.6 0.00 0.00 0.00 31 1013.7
20260506003717 74 321 5.2 9.6 0.00 0.00 0.00 31 1013.7
20260506003003 74 316 5.2 9.6 0.00 0.00 0.00 31 1013.7
20260506002719 75 314 4.3 8.7 0.00 0.00 0.00 31 1013.7
20260506002003 75 326 3.5 7.8 0.00 0.00 0.00 29 1013.5
20260506001503 76 348 4.3 10.4 0.00 0.00 0.00 29 1013.6
20260506001004 76 338 6.1 13.0 0.00 0.00 0.00 28 1013.6
20260506000503 76 341 5.2 13.0 0.00 0.00 0.00 28 1013.5
20260506000003 76 347 4.3 9.6 0.00 0.00 0.00 28 1013.5
20260505235503 76 337 5.2 10.4 0.00 0.00 0.00 28 1013.5
20260505235004 75 339 6.1 12.2 0.00 0.00 0.00 28 1013.6
20260505234503 75 332 7.0 12.2 0.00 0.00 0.00 28 1013.5
20260505234003 75 313 7.0 12.2 0.00 0.00 0.00 29 1013.5
20260505233503 76 303 7.0 12.2 0.00 0.00 0.00 30 1013.5
20260505233003 76 306 7.8 12.2 0.00 0.00 0.00 29 1013.5
20260505232719 76 306 7.8 12.2 0.00 0.00 0.00 29 1013.5
20260505232003 77 322 6.1 13.0 0.00 0.00 0.00 29 1013.6
20260505231504 77 331 5.2 13.0 0.00 0.00 0.00 29 1013.7
20260505231003 77 3 5.2 14.8 0.00 0.00 0.00 26 1013.5
20260505230503 77 11 6.1 14.8 0.00 0.00 0.00 26 1013.6
20260505230216 78 12 6.1 14.8 0.00 0.00 0.00 26 1013.6
20260505225503 78 34 6.1 10.4 0.00 0.00 0.00 27 1013.7
20260505225004 78 39 7.0 13.0 0.00 0.00 0.00 27 1013.6
20260505224503 79 16 7.0 13.0 0.00 0.00 0.00 25 1013.6
20260505224215 79 356 6.1 13.0 0.00 0.00 0.00 25 1013.6
20260505223503 78 16 5.2 10.4 0.00 0.00 0.00 25 1013.6
20260505223003 78 5 4.3 10.4 0.00 0.00 0.00 26 1013.6
20260505222503 78 4 6.1 11.3 0.00 0.00 0.00 28 1013.7
20260505222003 78 26 6.1 11.3 0.00 0.00 0.00 26 1013.7
20260505221503 77 40 6.1 10.4 0.00 0.00 0.00 29 1013.8
20260505221003 76 34 5.2 10.4 0.00 0.00 0.00 28 1013.8
20260505220718 76 29 6.1 10.4 0.00 0.00 0.00 30 1013.9
20260505220003 74 26 7.0 13.9 0.00 0.00 0.00 30 1013.8
20260505215503 74 29 7.8 13.9 0.00 0.00 0.00 29 1013.9
20260505215217 74 27 7.8 13.9 0.00 0.00 0.00 32 1013.9
20260505214718 75 33 6.1 13.9 0.00 0.00 0.00 29 1013.9
20260505214003 75 37 2.6 7.8 0.00 0.00 0.00 29 1014.0
20260505213503 75 349 2.6 7.8 0.00 0.00 0.00 28 1013.9
20260505213004 74 32 4.3 20.0 0.00 0.00 0.00 30 1014.0
20260505212503 74 20 5.2 20.0 0.00 0.00 0.00 31 1014.0
20260505212003 74 329 4.3 10.4 0.00 0.00 0.00 29 1014.1
20260505211503 74 346 4.3 10.4 0.00 0.00 0.00 32 1014.0
20260505211004 75 32 6.1 19.1 0.00 0.00 0.00 28 1014.1
20260505210718 75 26 6.1 19.1 0.00 0.00 0.00 30 1014.1
20260505210219 76 35 4.3 19.1 0.00 0.00 0.00 30 1013.6
20260505205503 77 126 2.6 8.7 0.00 0.00 0.00 29 1014.0
20260505205003 77 85 2.6 6.1 0.00 0.00 0.00 27 1014.1
20260505204718 76 75 2.6 8.7 0.00 0.00 0.00 28 1014.2
20260505204003 75 57 6.1 11.3 0.00 0.00 0.00 31 1014.1
20260505203503 74 55 3.5 11.3 0.00 0.00 0.00 31 1014.1
20260505203004 75 338 1.7 3.5 0.00 0.00 0.00 31 1014.2
20260505202718 75 335 1.7 3.5 0.00 0.00 0.00 32 1014.2
20260505202003 75 306 1.7 5.2 0.00 0.00 0.00 32 1014.2
20260505201503 74 321 2.6 7.0 0.00 0.00 0.00 34 1014.3
20260505201004 74 300 3.5 7.8 0.00 0.00 0.00 34 1014.4
20260505200503 74 293 3.5 7.8 0.00 0.00 0.00 34 1014.4
20260505200003 74 322 4.3 10.4 0.00 0.00 0.00 33 1014.3
20260505195719 74 328 4.3 10.4 0.00 0.00 0.00 35 1014.4
20260505195003 74 312 2.6 9.6 0.00 0.00 0.00 36 1014.4
20260505194503 73 309 0.9 5.2 0.00 0.00 0.00 36 1014.5
20260505194003 72 293 1.7 7.0 0.00 0.00 0.00 36 1014.5
20260505193504 72 312 2.6 7.8 0.00 0.00 0.00 36 1014.6
20260505193003 72 31 2.6 7.8 0.00 0.00 0.00 36 1014.6
20260505192503 72 111 2.6 7.8 0.00 0.00 0.00 37 1014.5
20260505192003 72 78 3.5 7.8 0.00 0.00 0.00 37 1014.5
20260505191503 72 305 2.6 7.8 0.00 0.00 0.00 36 1014.6
20260505191003 72 293 2.6 9.6 0.00 0.00 0.00 39 1014.5
20260505190503 71 281 3.5 9.6 0.00 0.00 0.00 40 1014.6
20260505190004 71 240 2.6 7.0 0.00 0.00 0.00 40 1014.6
20260505185503 70 256 3.5 7.0 0.00 0.00 0.00 40 1014.6
20260505185003 70 290 3.5 7.0 0.00 0.00 0.00 40 1014.7
20260505184503 69 255 3.5 7.0 0.00 0.00 0.00 45 1014.7
20260505184003 69 235 3.5 7.0 0.00 0.00 0.00 46 1014.7
20260505183503 68 244 3.5 6.1 0.00 0.00 0.00 49 1014.7
20260505183003 68 243 3.5 7.0 0.00 0.00 0.00 48 1014.9
20260505182717 67 240 3.5 7.0 0.00 0.00 0.00 48 1014.9
20260505182003 66 252 2.6 7.0 0.00 0.00 0.00 51 1014.9
20260505181503 66 266 3.5 7.0 0.00 0.00 0.00 50 1014.9
20260505181003 66 270 3.5 7.8 0.00 0.00 0.00 50 1014.9
20260505180503 65 271 2.6 7.8 0.00 0.00 0.00 51 1015.0
20260505180003 65 262 2.6 7.0 0.00 0.00 0.00 53 1015.0
20260505175504 64 272 2.6 7.0 0.00 0.00 0.00 52 1015.0
20260505175216 64 294 2.6 6.1 0.00 0.00 0.00 53 1015.0
20260505174503 63 283 2.6 7.0 0.00 0.00 0.00 54 1014.9
20260505174003 63 281 1.7 7.0 0.00 0.00 0.00 58 1015.0
20260505173504 63 297 2.6 7.8 0.00 0.00 0.00 56 1014.9
20260505173003 62 285 2.6 7.8 0.00 0.00 0.00 58 1015.0
20260505172504 61 282 2.6 6.1 0.00 0.00 0.00 57 1014.9
20260505172218 61 291 2.6 7.0 0.00 0.00 0.00 58 1015.0
20260505171503 61 299 2.6 7.0 0.00 0.00 0.00 59 1015.0
20260505171003 60 316 2.6 7.0 0.00 0.00 0.00 58 1015.0
20260505170503 60 312 2.6 7.0 0.00 0.00 0.00 58 1015.0
20260505170003 59 301 2.6 6.1 0.00 0.00 0.00 59 1015.0
20260505165504 59 283 3.5 7.0 0.00 0.00 0.00 60 1015.0
20260505165003 59 287 2.6 7.0 0.00 0.00 0.00 62 1015.0
20260505164503 58 301 2.6 7.0 0.00 0.00 0.00 62 1015.1
20260505164003 58 295 2.6 7.0 0.00 0.00 0.00 64 1015.1
20260505163503 57 298 2.6 7.0 0.00 0.00 0.00 65 1015.0
20260505163003 56 294 2.6 5.2 0.00 0.00 0.00 68 1015.0
20260505162503 56 288 2.6 5.2 0.00 0.00 0.00 70 1015.1
20260505162004 55 284 2.6 7.0 0.00 0.00 0.00 73 1015.0
20260505161503 55 288 3.5 7.0 0.00 0.00 0.00 74 1015.1
20260505161003 54 293 3.5 7.8 0.00 0.00 0.00 74 1015.1
20260505160504 54 281 2.6 7.8 0.00 0.00 0.00 75 1015.1
20260505153003 50 276 1.7 3.5 0.00 0.00 0.00 82 1015.1
20260505152716 50 275 1.7 3.5 0.00 0.00 0.00 82 1015.0
20260505152003 49 266 2.6 6.1 0.00 0.00 0.00 84 1015.0
20260505151718 48 263 2.6 6.1 0.00 0.00 0.00 84 1014.9
20260505151003 48 265 1.7 6.1 0.00 0.00 0.00 85 1015.0
20260505150503 47 266 1.7 5.2 0.00 0.00 0.00 87 1015.0
20260505125003 42 107 0.0 1.7 0.00 0.00 0.00 85 1014.0
20260505124503 42 117 0.0 1.7 0.00 0.00 0.00 85 1014.0
20260505124220 42 108 0.9 1.7 0.00 0.00 0.00 85 1014.0
20260505123503 42 87 0.0 1.7 0.00 0.00 0.00 85 1014.0
20260505123003 42 0 0.0 0.0 0.00 0.00 0.00 84 1014.0
20260505122504 42 45 0.0 1.7 0.00 0.00 0.00 84 1014.0
20260505122220 42 45 0.0 1.7 0.00 0.00 0.00 83 1013.9
20260505121503 42 50 0.9 3.5 0.00 0.00 0.00 83 1013.8
20260505121217 42 53 1.7 3.5 0.00 0.00 0.00 82 1013.8
20260505120503 42 61 1.7 2.6 0.00 0.00 0.00 82 1013.7
20260505120004 43 67 0.9 3.5 0.00 0.00 0.00 82 1013.7
20260505115503 43 84 0.9 3.5 0.00 0.00 0.00 82 1013.7
20260505115003 43 186 0.9 2.6 0.00 0.00 0.00 82 1013.6
20260505114503 44 182 0.9 2.6 0.00 0.00 0.00 82 1013.6
20260505114003 44 173 0.9 2.6 0.00 0.00 0.00 82 1013.7
20260505113503 44 173 0.9 1.7 0.00 0.00 0.00 82 1013.6
20260505113217 44 170 0.9 3.5 0.00 0.00 0.00 82 1013.7
20260505112503 44 160 0.9 3.5 0.00 0.00 0.00 82 1013.6
20260505112003 44 132 0.9 2.6 0.00 0.00 0.00 81 1013.7
20260505111503 44 127 0.9 2.6 0.00 0.00 0.00 81 1013.6
20260505111003 45 135 0.9 2.6 0.00 0.00 0.00 81 1013.5
20260505110503 45 127 0.9 2.6 0.00 0.00 0.00 80 1013.4
20260505102003 50 151 3.5 8.7 0.00 0.00 0.00 67 1013.1
20260505101503 52 149 3.5 8.7 0.00 0.00 0.00 64 1013.0
20260505101003 53 157 1.7 4.3 0.00 0.00 0.00 61 1013.0
20260505100503 55 214 0.9 3.5 0.00 0.00 0.00 58 1012.7
20260505100219 55 260 0.9 3.5 0.00 0.00 0.00 57 1012.8
20260505095503 56 270 1.7 3.5 0.00 0.00 0.00 55 1012.6
20260505095003 57 310 2.6 7.0 0.00 0.00 0.00 53 1012.6
20260505094503 58 340 3.5 7.8 0.00 0.00 0.00 47 1012.4
20260505094004 58 345 4.3 7.8 0.00 0.00 0.00 46 1012.4
20260505093503 58 335 5.2 13.9 0.00 0.00 0.00 45 1012.4
20260505093003 58 333 5.2 13.9 0.00 0.00 0.00 45 1012.4
20260505092503 58 336 6.1 14.8 0.00 0.00 0.00 45 1012.5
20260505092003 58 334 7.0 14.8 0.00 0.00 0.00 44 1012.3
20260505091504 58 337 7.8 16.5 0.00 0.00 0.00 45 1012.4
20260505091003 58 335 7.8 16.5 0.00 0.00 0.00 44 1012.4
20260505090504 59 319 7.8 14.8 0.00 0.00 0.00 44 1012.4
20260505090003 59 315 7.0 14.8 0.00 0.00 0.00 44 1012.4
20260505085503 58 311 6.1 12.2 0.00 0.00 0.00 44 1012.5
20260505085003 59 297 6.1 13.9 0.00 0.00 0.00 44 1012.5
20260505084503 58 295 7.0 13.9 0.00 0.00 0.00 44 1012.5
20260505084003 58 295 6.1 13.9 0.00 0.00 0.00 45 1012.5
20260505083504 58 294 4.3 13.9 0.00 0.00 0.00 45 1012.5
20260505083216 58 297 4.3 12.2 0.00 0.00 0.00 45 1012.5
20260505082503 58 289 4.3 11.3 0.00 0.00 0.00 45 1012.5
20260505082003 57 282 3.5 10.4 0.00 0.00 0.00 46 1012.5
20260505081719 57 277 3.5 9.6 0.00 0.00 0.00 46 1012.5
20260505081003 57 269 3.5 7.0 0.00 0.00 0.00 47 1012.4
20260505080503 57 275 2.6 6.1 0.00 0.00 0.00 47 1012.4
20260505080003 57 278 2.6 8.7 0.00 0.00 0.00 47 1012.4
20260505075503 57 280 2.6 8.7 0.00 0.00 0.00 48 1012.4
20260505075003 57 281 3.5 8.7 0.00 0.00 0.00 47 1012.3
20260505074504 57 281 4.3 8.7 0.00 0.00 0.00 47 1012.4
20260505074003 57 280 3.5 8.7 0.00 0.00 0.00 47 1012.3
20260505073503 57 287 3.5 7.8 0.00 0.00 0.00 47 1012.4
20260505073003 58 289 4.3 7.8 0.00 0.00 0.00 47 1012.3
20260505072504 58 297 5.2 10.4 0.00 0.00 0.00 47 1012.3
20260505072003 58 304 6.1 10.4 0.00 0.00 0.00 46 1012.2
20260505071503 59 307 6.1 11.3 0.00 0.00 0.00 46 1012.2
20260505071004 59 315 6.1 13.0 0.00 0.00 0.00 45 1012.1
20260505070503 59 321 7.0 14.8 0.00 0.00 0.00 45 1012.0
20260505070218 60 320 7.8 15.6 0.00 0.00 0.00 44 1011.9
20260505065719 60 318 7.0 15.6 0.00 0.00 0.00 44 1011.9
20260505065003 60 330 7.8 13.0 0.00 0.00 0.00 44 1011.7
20260505064503 60 334 8.7 15.6 0.00 0.00 0.00 44 1011.6
20260505064004 60 334 9.6 17.4 0.00 0.00 0.00 44 1011.6
20260505063503 60 333 9.6 17.4 0.00 0.00 0.00 43 1011.5
20260505063219 61 336 8.7 16.5 0.00 0.00 0.00 44 1011.4
20260505062716 61 340 7.8 17.4 0.00 0.00 0.00 43 1011.5
20260505062003 61 344 8.7 18.2 0.00 0.00 0.00 44 1011.4
20260505061503 61 342 8.7 18.2 0.00 0.00 0.00 44 1011.3
20260505061004 61 342 8.7 15.6 0.00 0.00 0.00 45 1011.3
20260505060503 61 345 7.8 15.6 0.00 0.00 0.00 45 1011.4
20260505060003 61 345 6.1 13.9 0.00 0.00 0.00 46 1011.4
20260505055503 61 349 5.2 13.0 0.00 0.00 0.00 46 1011.3
20260505055219 61 351 5.2 13.0 0.00 0.00 0.00 46 1011.3
20260505054504 61 351 4.3 11.3 0.00 0.00 0.00 47 1011.3
20260505054003 61 354 4.3 9.6 0.00 0.00 0.00 48 1011.2
20260505053503 61 355 4.3 9.6 0.00 0.00 0.00 49 1011.3
20260505053003 61 353 5.2 10.4 0.00 0.00 0.00 49 1011.1
20260505052503 61 354 5.2 11.3 0.00 0.00 0.00 51 1011.2
20260505052003 61 354 5.2 13.0 0.00 0.00 0.00 52 1011.2
20260505051503 61 354 6.1 13.0 0.00 0.00 0.00 54 1011.2
20260505051003 61 356 6.1 10.4 0.00 0.00 0.00 56 1011.2
20260505050504 62 358 5.2 10.4 0.00 0.00 0.00 57 1011.2
20260505050217 62 358 4.3 8.7 0.00 0.00 0.00 57 1011.3
20260505041718 63 336 7.0 12.2 0.00 0.00 0.00 54 1010.8
20260505041003 64 341 6.1 12.2 0.00 0.00 0.00 53 1010.7
20260505040504 64 344 6.1 11.3 0.00 0.00 0.00 52 1010.6
20260505040004 64 345 5.2 12.2 0.00 0.00 0.00 51 1010.5
20260505035503 64 345 5.2 12.2 0.00 0.00 0.00 50 1010.4
20260505035003 65 346 5.2 11.3 0.00 0.00 0.00 49 1010.3
20260505034503 65 349 5.2 12.2 0.00 0.00 0.00 47 1010.3
20260505034217 65 349 5.2 12.2 0.00 0.00 0.00 47 1010.2
20260505033503 65 348 6.1 13.0 0.00 0.00 0.00 46 1010.1
20260505033218 65 349 7.0 13.0 0.00 0.00 0.00 46 1010.1
20260505032503 65 345 7.0 17.4 0.00 0.00 0.00 46 1009.9
20260505032003 65 342 9.6 17.4 0.00 0.00 0.00 46 1009.8
20260505031503 65 341 9.6 17.4 0.00 0.00 0.00 47 1009.6
20260505031003 64 343 9.6 16.5 0.00 0.00 0.00 48 1009.5
20260505030503 64 341 7.8 16.5 0.00 0.00 0.00 50 1009.4
20260505030004 63 339 6.1 13.9 0.00 0.00 0.00 52 1009.4